Regional Weather Roundup
Issued by NWS

Home | Current Version | Previous Version | Text Only | Print | Product List | Glossary On
Versions: 1 2 3 4 5 6 7 8 9 10 11 12 13 14 15 16 17 18 19 20 21 22 23 24 25 26 27
000
ASUS45 KREV 280810
RWRNV
NEVADA REGIONAL WEATHER ROUNDUP
NATIONAL WEATHER SERVICE RENO NV
100 AM PDT WED SEP 28 2016

NOTE: "FAIR" INDICATES FEW OR NO CLOUDS BELOW 12,000 FEET WITH NO
SIGNIFICANT WEATHER AND/OR OBSTRUCTIONS TO VISIBILITY.

NVZ001-003-004-280900-
WESTERN NEVADA

CITY           SKY/WX    TMP DP  RH WIND       PRES   REMARKS
RENO           CLEAR     58  34  40 SE3       30.08S
CARSON CITY    FAIR      57  27  30 SW3       30.12R
MINDEN         FAIR      46  25  42 E5        30.11S
PYRAMID LAKE     N/A     68 N/A N/A CALM        N/A
FALLON         CLEAR     57  35  43 SW5       30.02S
LOVELOCK       CLEAR     45  25  45 CALM      30.03R
$$

NVZ002-CAZ072-073-280900-
NORTHERN AND CENTRAL SIERRA

CITY           SKY/WX    TMP DP  RH WIND       PRES   REMARKS
S. LAKE TAHOE  CLEAR     44  31  60 S3        30.21R
TRUCKEE        CLEAR     45  34  65 CALM      30.20S
SQUAW VLY 8000 NOT AVBL
MAMMOTH LAKES  FAIR      44  24  44 N3        30.28R
BRIDGEPORT       N/A     42  20  41 CALM      30.24S
$$

NVZ030-031-036-280900-
NORTHERN NEVADA

CITY           SKY/WX    TMP DP  RH WIND       PRES   REMARKS
ELKO           CLEAR     52  40  63 NE5       30.15S
WINNEMUCCA     CLEAR     54  29  38 CALM      30.06S
WENDOVER       PTCLDY    54  45  71 CALM      30.15S
$$

NVZ035-037-280900-
CENTRAL NEVADA

CITY           SKY/WX    TMP DP  RH WIND       PRES   REMARKS
ELY            CLEAR     44  29  55 S10       30.25R
EUREKA           N/A     47  34  60 S8        30.19R
$$

NVZ013-014-280900-
SOUTH CENTRAL NEVADA

CITY           SKY/WX    TMP DP  RH WIND       PRES   REMARKS
TONOPAH        CLEAR     55  27  34 N8        30.17R
$$

NVZ017-020-022-280900-
SOUTHERN NEVADA

CITY           SKY/WX    TMP DP  RH WIND       PRES   REMARKS
LAS VEGAS      MOCLDY    77  40  26 CALM      29.97R
N. LAS VEGAS   PTCLDY    75  44  33 CALM      29.98R
NELLIS AFB     CLEAR     74  50  43 NE8       29.96R
HENDERSON      CLEAR     73  43  33 S7        30.00S
MERCURY        PTCLDY    69  35  28 CALM      30.03S
$$




USA.gov is the U.S. government's official web portal to all federal, state and local government web resources and services.